TimeCDT,TemperatureF,Dew PointF,Humidity,Sea Level PressureIn,VisibilityMPH,Wind Direction,Wind SpeedMPH,Gust SpeedMPH,PrecipitationIn,Events,Conditions,WindDirDegrees,DateUTC
12:35 AM,62.6,55.4,77,29.96,10.0,SSE,8.1,-,N/A,,Scattered Clouds,150,2013-05-09 05:35:00
12:55 AM,62.6,55.4,77,29.96,10.0,SSE,5.8,-,N/A,,Mostly Cloudy,150,2013-05-09 05:55:00
1:35 AM,62.6,55.4,77,29.94,10.0,SE,6.9,-,N/A,,Overcast,140,2013-05-09 06:35:00
1:55 AM,62.6,55.4,77,29.93,10.0,SE,8.1,-,N/A,,Overcast,130,2013-05-09 06:55:00
4:15 AM,64.4,55.4,73,29.91,10.0,South,9.2,-,N/A,,Mostly Cloudy,180,2013-05-09 09:15:00
4:35 AM,64.4,53.6,68,29.91,10.0,South,10.4,17.3,N/A,,Mostly Cloudy,180,2013-05-09 09:35:00
5:15 AM,62.6,53.6,72,29.92,10.0,SSW,8.1,-,N/A,,Overcast,210,2013-05-09 10:15:00
5:35 AM,60.8,53.6,77,29.92,10.0,SSW,9.2,-,N/A,,Overcast,210,2013-05-09 10:35:00
7:15 AM,57.2,55.4,94,29.96,7.0,SW,9.2,-,0.05,Rain,Rain,230,2013-05-09 12:15:00
9:15 AM,59.0,59.0,100,29.94,10.0,SSW,11.5,-,N/A,,Overcast,210,2013-05-09 14:15:00
9:55 AM,60.8,59.0,94,29.95,10.0,SSW,11.5,-,N/A,,Overcast,200,2013-05-09 14:55:00
10:15 AM,60.8,59.0,94,29.94,10.0,SW,10.4,-,N/A,,Mostly Cloudy,230,2013-05-09 15:15:00
10:35 AM,62.6,59.0,88,29.94,10.0,SW,10.4,-,N/A,,Scattered Clouds,220,2013-05-09 15:35:00
10:55 AM,62.6,59.0,88,29.95,10.0,SW,15.0,18.4,N/A,,Scattered Clouds,220,2013-05-09 15:55:00
11:15 AM,62.6,59.0,88,29.95,10.0,SW,11.5,-,N/A,,Scattered Clouds,230,2013-05-09 16:15:00
11:35 AM,66.2,59.0,78,29.96,10.0,WSW,16.1,20.7,N/A,,Overcast,250,2013-05-09 16:35:00
11:55 AM,66.2,59.0,78,29.96,10.0,WSW,11.5,19.6,N/A,,Overcast,250,2013-05-09 16:55:00
12:15 PM,68.0,59.0,73,29.96,10.0,WSW,13.8,20.7,N/A,,Overcast,250,2013-05-09 17:15:00
12:35 PM,69.8,59.0,68,29.96,10.0,WSW,12.7,-,N/A,,Scattered Clouds,250,2013-05-09 17:35:00
12:55 PM,69.8,59.0,68,29.95,10.0,WSW,16.1,24.2,N/A,,Clear,240,2013-05-09 17:55:00
1:15 PM,69.8,59.0,68,29.93,10.0,West,11.5,-,N/A,,Clear,260,2013-05-09 18:15:00
1:35 PM,71.6,59.0,64,29.93,10.0,WSW,10.4,19.6,N/A,,Clear,240,2013-05-09 18:35:00
1:55 PM,71.6,59.0,64,29.94,10.0,WSW,15.0,19.6,N/A,,Scattered Clouds,240,2013-05-09 18:55:00
3:15 PM,71.6,60.8,69,29.95,10.0,WSW,8.1,-,N/A,,Mostly Cloudy,240,2013-05-09 20:15:00
3:35 PM,71.6,60.8,69,29.95,10.0,WSW,6.9,-,N/A,,Mostly Cloudy,240,2013-05-09 20:35:00
3:55 PM,71.6,60.8,69,29.94,10.0,WSW,8.1,-,N/A,,Mostly Cloudy,250,2013-05-09 20:55:00
4:15 PM,73.4,60.8,65,29.93,10.0,WSW,9.2,-,N/A,,Scattered Clouds,250,2013-05-09 21:15:00
4:35 PM,71.6,60.8,69,29.93,10.0,WSW,9.2,-,N/A,,Mostly Cloudy,240,2013-05-09 21:35:00
4:55 PM,71.6,60.8,69,29.93,10.0,WSW,9.2,-,N/A,,Mostly Cloudy,250,2013-05-09 21:55:00
5:15 PM,71.6,60.8,69,29.92,10.0,West,4.6,-,N/A,,Overcast,260,2013-05-09 22:15:00
5:35 PM,71.6,60.8,69,29.91,10.0,West,5.8,-,N/A,,Overcast,280,2013-05-09 22:35:00
5:55 PM,69.8,60.8,73,29.91,10.0,West,6.9,-,N/A,,Overcast,260,2013-05-09 22:55:00
6:15 PM,69.8,60.8,73,29.91,10.0,West,3.5,-,N/A,Thunderstorm,Overcast,260,2013-05-09 23:15:00
6:35 PM,69.8,60.8,73,29.91,10.0,SW,3.5,-,N/A,,Overcast,220,2013-05-09 23:35:00
6:55 PM,62.6,60.8,94,29.92,7.0,South,11.5,17.3,0.03,Rain,Heavy Rain,180,2013-05-09 23:55:00
7:15 PM,60.8,59.0,94,29.92,7.0,SW,3.5,-,0.16,Rain,Light Rain,220,2013-05-10 00:15:00
7:35 PM,60.8,59.0,94,29.95,4.0,South,9.2,-,0.23,Rain-Thunderstorm,Heavy Thunderstorms and Rain,190,2013-05-10 00:35:00
7:55 PM,60.8,59.0,94,29.93,3.0,SSW,10.4,-,0.56,Rain-Thunderstorm,Heavy Thunderstorms and Rain,200,2013-05-10 00:55:00
8:15 PM,60.8,60.8,100,29.94,7.0,WSW,6.9,-,0.04,Rain-Thunderstorm,Light Thunderstorms and Rain,240,2013-05-10 01:15:00
8:35 PM,60.8,60.8,100,29.94,10.0,South,3.5,-,0.05,Rain-Thunderstorm,Rain,190,2013-05-10 01:35:00
8:55 PM,60.8,60.8,100,29.94,7.0,SSE,6.9,-,0.09,Rain-Thunderstorm,Rain,150,2013-05-10 01:55:00
9:15 PM,60.8,60.8,100,29.96,4.0,South,11.5,-,0.14,Rain-Thunderstorm,Heavy Thunderstorms and Rain,190,2013-05-10 02:15:00
9:35 PM,60.8,60.8,100,29.93,5.0,South,11.5,-,0.23,Rain-Thunderstorm,Rain,170,2013-05-10 02:35:00
9:55 PM,60.8,59.0,94,29.96,5.0,South,6.9,-,0.30,Rain-Thunderstorm,Heavy Thunderstorms and Rain,170,2013-05-10 02:55:00
10:15 PM,60.8,59.0,94,29.96,5.0,SSE,9.2,-,0.10,Rain-Thunderstorm,Light Thunderstorms and Rain,150,2013-05-10 03:15:00
10:55 PM,59.0,59.0,100,29.96,10.0,SSE,6.9,-,0.16,Rain-Thunderstorm,Light Thunderstorms and Rain,150,2013-05-10 03:55:00
11:15 PM,59.0,59.0,100,29.95,4.0,SSE,12.7,-,0.13,Rain-Thunderstorm,Heavy Thunderstorms and Rain,160,2013-05-10 04:15:00
11:35 PM,59.0,57.2,94,29.94,10.0,NE,3.5,-,0.21,Rain-Thunderstorm,Light Thunderstorms and Rain,50,2013-05-10 04:35:00
11:55 PM,59.0,57.2,94,29.93,10.0,SSW,6.9,-,0.21,Thunderstorm,Mostly Cloudy,200,2013-05-10 04:55:00